SCP
1 1 1 1 1 1 1 1 1 1 1 1 1 0 0 0 0 0 0 0 0 0 0 0 0 0 0 1 1 1 1 1 1 0 0 0 0 0 0 0 0 0 0
1 1 1 1 1 2 1 1 1 1 1 1 1 0 0 0 0 0 0 0 0 0 0 0 0 0 0 1 1 1 1 1 1 0 0 0 0 0 0 0 0 0 0
1 1 1 1 1 2 2 1 1 1 1 1 0 0 0 0 0 0 0 0 0 0 0 0 0 0 0 0 1 1 1 1 1 0 0 0 0 0 0 0 0 0 0
1 1 1 1 1 2 2 2 1 1 1 1 0 0 0 0 0 0 0 0 0 0 0 0 0 0 0 0 1 1 1 1 1 1 0 0 0 0 0 0 0 0 0
1 1 1 0 1 1 2 2 1 1 1 1 0 0 0 0 1 1 1 0 0 0 0 0 0 0 0 0 1 1 1 1 1 1 0 0 0 0 0 0 0 0 0
1 1 0 0 0 1 1 2 2 1 1 0 0 0 0 0 1 1 1 0 0 0 0 0 0 0 0 0 0 1 1 1 1 1 1 0 0 0 0 0 0 0 0
0 0 0 0 0 0 1 1 2 1 1 0 0 0 0 1 1 1 1 0 0 0 0 0 0 0 0 0 0 1 1 1 1 1 1 0 0 0 0 0 0 0 0
0 0 0 0 0 0 0 1 1 1 1 0 0 0 0 1 1 1 1 0 0 0 0 0 1 0 0 0 0 0 1 1 1 1 1 0 0 0 0 0 0 0 0
0 0 0 0 0 0 0 1 1 1 1 1 0 0 0 1 1 1 0 0 0 0 0 0 0 0 0 0 0 0 0 0 1 1 1 0 0 0 0 0 0 0 0
0 0 0 0 0 0 0 0 0 1 1 1 0 0 0 0 1 0 0 0 0 0 0 0 0 0 0 0 0 0 0 0 0 1 1 0 0 0 0 0 0 0 0
0 0 0 0 0 0 0 0 0 0 1 1 1 0 0 0 0 0 0 0 0 0 0 0 0 0 0 0 0 0 0 0 0 0 0 0 0 0 0 0 0 0 0
0 0 0 0 0 0 0 0 0 0 0 1 1 0 0 0 0 0 0 0 0 0 0 0 0 0 0 0 0 0 0 0 0 1 0 0 0 0 0 0 0 0 0
0 0 0 0 0 0 0 0 0 0 0 0 1 0 0 0 0 0 0 0 0 0 0 0 0 0 0 0 0 0 0 0 0 0 0 0 0 0 0 0 0 0 0
1 0 0 0 0 0 0 0 0 0 0 0 1 1 0 0 0 0 0 0 0 0 0 0 0 0 0 0 0 0 0 0 0 0 0 0 0 0 0 0 0 0 0
1 0 0 0 0 0 0 0 0 0 0 0 0 1 0 0 0 0 0 0 0 0 0 0 0 0 0 0 0 0 0 0 0 0 0 0 0 0 0 0 0 0 0
1 0 0 0 0 0 0 0 0 0 0 0 0 0 0 0 0 0 0 0 0 0 0 0 0 0 0 0 0 0 0 0 0 0 0 0 0 0 0 0 0 0 0
1 1 0 0 0 0 0 0 1 0 0 0 0 0 0 0 0 0 0 0 0 0 0 0 0 0 0 0 0 0 0 0 0 0 0 0 0 0 0 0 0 0 0
1 1 0 0 0 0 0 0 1 1 0 0 0 0 0 0 0 0 0 0 0 0 0 0 0 0 0 0 0 0 0 0 0 0 0 0 0 0 0 0 0 0 0
1 1 0 0 0 0 0 0 1 1 0 0 0 0 0 0 0 0 0 0 0 0 0 0 0 0 0 0 0 0 0 0 0 0 0 0 0 0 0 0 0 0 0
1 1 0 0 0 0 0 1 1 1 0 0 0 0 0 0 0 0 0 0 0 0 0 0 0 0 0 0 0 0 0 0 0 0 0 0 0 0 0 0 0 0 0
1 1 1 1 0 0 0 0 1 1 0 0 0 0 0 0 0 0 0 0 0 0 0 0 0 0 0 0 0 0 0 0 0 0 0 0 0 0 0 0 0 0 0
1 1 1 1 0 0 0 0 0 1 0 0 0 0 0 0 0 0 0 0 0 0 0 0 0 0 0 0 0 0 0 0 0 0 0 0 0 0 0 0 0 0 0
1 1 1 1 0 0 0 0 0 0 0 0 0 0 0 0 0 0 0 0 0 0 0 0 0 0 0 0 0 0 0 0 0 0 0 0 0 0 0 0 0 0 0
1 1 1 0 0 0 0 0 0 0 0 0 0 0 0 0 0 0 0 0 0 0 0 0 0 0 0 0 0 0 0 0 0 0 0 0 0 0 0 0 0 0 0
1 0 0 0 0 0 0 0 0 0 0 0 0 0 0 0 0 0 0 0 0 0 0 0 0 0 0 0 0 0 0 0 0 0 0 0 0 0 0 0 0 0 0
0 0 0 0 0 0 0 0 0 0 0 0 0 0 0 0 0 0 0 0 0 0 0 0 0 0 0 0 0 0 0 0 0 0 0 0 0 0 0 0 0 0 0
Wind_Speed
1 1 0 1 1 1 1 1 2 2 2 2 2 3 3 2 1 1 1 3 4 5 6 7 7 7 7 7 8 8 8 8 8 8 8 8 8 8 8 8 8 8 9
1 0 1 1 1 1 1 1 2 2 2 2 2 2 2 2 1 1 1 1 2 3 5 6 6 6 6 7 8 8 8 7 7 7 7 7 7 8 7 7 7 7 7
1 0 0 1 1 1 1 1 2 2 2 2 2 2 2 2 2 1 1 1 0 1 3 4 5 5 5 6 7 8 8 7 7 7 7 7 7 7 7 7 6 6 6
0 1 0 0 1 1 2 2 2 2 2 2 1 1 1 1 2 1 1 1 1 1 1 2 3 4 4 5 6 6 7 7 7 6 6 6 7 7 7 7 6 6 5
1 0 1 1 1 1 2 3 2 3 3 2 1 1 1 1 2 2 1 1 1 1 1 1 1 1 2 3 5 5 6 7 6 6 5 5 6 6 6 6 5 5 4
2 1 1 1 1 1 2 3 3 2 3 3 2 1 1 1 1 1 2 1 1 1 1 1 0 0 0 1 3 5 5 6 7 6 5 4 5 5 6 6 5 5 4
2 1 1 1 1 2 2 3 3 4 3 3 2 1 0 1 1 1 1 1 1 1 1 1 1 0 1 1 1 3 5 5 6 6 5 5 4 4 5 6 6 5 5
1 1 2 1 2 2 2 2 3 3 2 3 3 2 2 1 1 2 2 2 2 2 2 1 1 1 1 1 1 1 2 4 5 6 5 5 4 4 4 5 6 6 5
2 2 2 2 2 2 3 3 3 4 4 3 3 3 3 3 1 1 2 2 2 2 2 2 2 2 1 1 1 1 1 2 3 4 4 4 4 4 3 5 5 6 6
2 2 2 3 3 2 3 4 3 3 5 4 2 1 1 3 3 2 1 2 3 3 3 2 2 2 2 1 1 1 1 2 3 3 3 4 4 4 4 3 5 5 5
2 3 3 3 3 3 3 3 3 2 4 4 3 2 1 1 2 2 3 2 2 3 3 3 2 2 2 2 2 2 2 3 4 4 3 4 4 4 4 4 4 5 5
3 3 3 3 3 3 4 4 4 4 4 4 3 3 3 3 3 2 3 3 3 2 2 2 2 3 2 2 2 2 3 3 4 4 5 4 5 5 5 4 4 4 5
3 4 3 3 3 4 4 4 4 5 5 6 5 3 3 3 2 2 3 2 2 1 2 2 3 2 2 2 3 3 3 3 3 4 5 5 4 4 5 5 5 5 5
4 4 4 4 4 4 4 4 4 5 5 5 5 5 3 3 2 3 3 3 2 1 2 3 2 3 3 3 3 4 3 4 4 4 4 4 3 3 4 4 4 4 4
4 5 5 4 4 5 5 5 4 5 5 5 6 5 4 3 3 3 3 3 4 4 4 3 3 3 3 3 3 3 3 4 4 4 4 3 3 3 3 3 3 3 4
5 5 5 5 5 5 5 5 4 5 6 5 5 6 5 4 4 3 3 2 3 3 3 2 3 2 3 2 2 3 3 3 3 4 4 3 3 2 3 3 3 3 3
5 5 6 5 5 5 5 5 6 6 7 6 5 6 7 6 5 4 3 3 3 3 4 2 1 1 2 3 2 2 2 3 2 4 4 3 3 3 3 3 3 3 3
5 6 6 6 6 6 6 6 7 7 8 8 7 7 8 6 6 5 4 5 4 3 4 4 2 2 2 3 3 3 2 2 2 4 4 3 3 3 3 3 3 3 3
6 6 6 7 7 6 6 7 7 7 8 8 8 8 8 8 7 5 6 5 4 4 3 4 3 2 2 2 3 2 3 2 2 3 4 4 4 4 4 4 3 3 3
6 6 6 7 7 7 7 7 7 7 8 8 8 8 8 9 9 8 7 7 6 5 4 4 3 3 2 2 3 3 2 2 3 2 3 4 4 5 4 4 4 4 4
6 6 6 7 7 6 6 7 7 8 8 8 8 8 8 9 10 9 7 7 7 6 5 5 4 4 4 4 4 3 4 2 3 2 2 3 3 3 3 4 4 4 4
6 5 6 7 7 6 8 9 8 7 8 8 8 8 7 9 10 10 10 10 9 8 7 6 5 6 6 5 4 3 3 3 3 2 2 3 2 3 3 3 4 4 4
6 6 6 6 7 8 10 10 10 8 8 8 8 8 6 7 9 8 8 9 10 11 11 8 7 8 6 7 6 5 5 5 4 3 2 3 3 4 3 3 6 6 5
6 6 6 7 7 8 9 10 10 8 7 8 8 9 8 8 8 8 7 8 8 8 9 8 8 8 6 6 7 6 5 3 1 2 3 3 2 3 3 3 6 6 6
6 5 6 6 7 8 9 9 9 6 6 7 7 8 9 9 11 11 9 8 8 7 7 8 8 7 8 8 6 3 4 3 3 3 2 2 2 2 2 3 4 6 6
5 5 6 6 7 7 8 9 8 5 6 5 5 7 10 10 12 12 10 9 9 8 6 5 5 5 5 7 8 7 6 5 3 2 3 2 2 1 2 2 2 3 4
Wind_Direction
102 112 114 114 113 116 126 124 118 114 115 112 110 117 113 101 91 74 90 112 120 128 134 134 132 130 128 134 130 124 123 121 128 129 127 124 120 115 111 106 101 97 93
101 115 167 156 161 154 152 156 143 135 132 123 112 117 123 117 102 83 76 109 125 131 134 141 138 136 135 137 137 133 128 125 122 132 135 132 130 125 120 115 111 105 99
102 96 162 192 197 178 159 148 130 120 118 123 122 128 132 122 111 106 86 81 99 115 126 135 134 136 143 142 145 143 138 131 126 122 133 137 135 130 129 125 120 114 106
65 123 152 259 231 186 172 167 154 135 129 129 135 144 145 142 136 131 99 95 100 86 105 109 126 136 146 157 149 150 149 145 138 133 126 139 142 140 138 135 131 125 117
305 171 207 228 268 198 186 178 165 157 156 149 142 134 158 160 164 148 136 121 121 115 122 72 79 135 154 165 167 159 158 156 150 147 143 142 151 154 155 152 147 142 137
316 253 229 225 225 194 199 175 172 170 171 161 142 100 183 176 164 163 173 169 145 137 124 101 92 305 191 190 186 182 168 166 165 162 158 157 157 168 171 167 166 162 160
305 273 250 240 225 209 208 185 170 169 174 154 128 107 68 166 166 187 188 180 168 167 149 145 151 176 268 269 212 188 184 176 178 175 174 176 182 184 187 184 184 182 179
283 274 235 231 232 217 199 185 184 175 183 173 156 149 164 200 218 210 192 190 191 177 181 186 168 172 184 215 272 212 181 184 187 186 183 185 188 196 200 196 198 198 193
271 256 250 227 233 220 210 199 193 185 185 196 184 168 170 193 192 206 201 195 192 185 196 195 187 188 185 177 229 253 204 193 197 193 188 192 194 200 207 209 204 208 207
266 257 251 229 224 225 217 212 199 200 184 194 201 218 200 159 164 182 207 203 198 198 202 202 201 202 196 193 220 237 225 209 202 207 210 204 205 212 215 224 220 218 220
266 255 251 233 220 221 219 215 209 208 195 195 195 192 188 166 173 168 198 198 206 215 208 208 205 206 205 197 206 226 224 216 213 212 224 224 221 225 230 236 241 231 230
278 263 254 238 221 220 218 216 213 207 209 198 196 196 190 182 186 174 187 197 209 217 210 211 206 207 202 196 207 220 217 214 220 223 231 240 236 236 242 245 248 247 238
274 265 258 246 234 225 224 217 215 211 208 201 200 207 208 215 196 184 175 191 218 218 204 213 216 207 203 203 209 207 205 208 215 227 239 243 256 247 248 252 257 260 247
260 263 254 247 247 234 228 220 222 216 207 206 210 209 209 219 201 190 186 177 204 229 215 215 204 206 208 206 214 206 205 210 214 224 239 250 266 268 252 257 265 268 257
257 259 256 252 248 239 226 218 223 216 208 209 210 210 213 219 209 204 193 187 187 210 222 209 201 206 204 197 203 199 203 213 217 226 236 249 257 269 258 252 262 268 273
252 255 255 252 251 245 231 220 226 214 209 214 212 209 213 216 207 200 199 209 203 205 226 208 209 194 194 200 203 200 209 213 215 224 233 237 244 254 261 251 257 266 271
255 250 250 249 247 246 233 221 224 212 208 214 217 215 216 211 205 201 195 200 206 201 226 243 230 202 195 199 208 210 213 210 223 232 234 232 243 245 253 249 253 266 264
260 253 249 247 245 243 237 225 225 219 210 211 215 217 218 212 208 203 199 204 208 206 208 224 230 215 215 210 204 207 217 222 224 237 232 234 248 256 257 244 245 254 257
260 256 247 244 244 242 239 232 228 223 218 216 215 217 218 208 212 208 206 207 210 211 206 206 218 219 217 210 200 210 213 229 247 241 232 240 252 255 255 248 240 249 261
261 255 250 247 245 244 242 239 232 226 223 222 220 219 217 212 213 207 209 209 203 203 204 206 207 205 207 204 197 200 220 230 244 252 245 255 260 255 258 260 250 251 256
267 263 255 252 249 244 239 240 236 227 225 224 221 220 220 220 220 213 209 203 198 201 200 206 211 207 205 198 209 202 216 222 238 222 243 252 249 243 247 255 251 250 255
266 265 260 252 250 249 252 251 245 228 225 223 221 221 221 218 219 220 217 210 204 200 201 207 215 216 214 208 204 205 201 201 234 208 216 255 237 243 242 234 261 265 260
262 261 262 258 256 254 256 253 251 235 225 222 220 217 221 219 215 214 216 217 220 221 214 209 213 218 212 205 199 206 213 213 224 202 198 239 230 242 242 253 260 260 259
258 257 262 259 259 261 261 258 254 235 228 225 221 217 216 217 213 208 208 211 217 221 218 215 216 217 215 211 205 208 212 212 235 214 189 229 234 246 257 242 247 246 253
264 263 264 259 258 264 265 264 252 228 227 228 224 220 216 216 214 207 205 210 216 222 220 219 220 218 216 216 207 182 184 194 225 227 196 203 229 260 258 246 244 245 249
267 272 272 264 258 260 262 260 247 227 225 228 226 224 225 222 213 208 206 206 213 215 198 198 208 216 212 205 207 206 195 197 202 220 192 184 194 187 276 256 237 242 247